Regional Weather Roundup
Issued by NWS

Home | Current Version | Previous Version | Graphics & Text | Print | Product List | Glossary Off
Versions: 1 2 3 4 5 6 7 8 9 10 11 12 13 14 15 16 17 18 19 20 21 22 23 24 25 26 27 28

000
ASUS45 KBOI 281710
RWRID

IDAHO REGIONAL WEATHER ROUNDUP
NATIONAL WEATHER SERVICE BOISE ID
1100 AM MDT TUE MAR 28 2017

NOTE: "FAIR" INDICATES FEW OR NO CLOUDS BELOW 12000 FEET
WITH NO SIGNIFICANT WEATHER AND/OR OBSTRUCTIONS TO VISIBILITY

IDZ012-014-281800-
SOUTHWEST IDAHO


CITY           SKY/WX    TMP DP  RH WIND       PRES   REMARKS
BOISE          SUNNY     44  32  62 NW9       30.28R
CALDWELL       SUNNY     46  34  62 NW10      30.30R
MOUNTAIN HOME  SUNNY     48  34  59 NW17      30.26R
$$

IDZ016-017-281800-
SOUTHCENTRAL IDAHO


CITY           SKY/WX    TMP DP  RH WIND       PRES   REMARKS
BURLEY         PTSUNNY   42  28  57 W17G23    30.21F
JEROME         SUNNY     41  32  70 SW16      30.23S
TWIN FALLS     SUNNY     42  27  55 W20       30.23F
$$

IDZ019>023-281800-
SOUTHEAST IDAHO


CITY           SKY/WX    TMP DP  RH WIND       PRES   REMARKS
IDAHO FALLS    MOSUNNY   40  28  62 VRB3      30.18F
POCATELLO      MOSUNNY   40  32  73 SW12      30.21S WCI  33
REXBURG        SUNNY     40  31  70 CALM      30.16F
$$

IDZ006-010-011-018-031-032-281800-
CENTRAL IDAHO MOUNTAINS


CITY           SKY/WX    TMP DP  RH WIND       PRES   REMARKS
MCCALL         SUNNY     30  24  78 S3        30.22R
HAILEY         MOSUNNY   39  21  48 NW7       30.20S WCI  34
STANLEY        NOT AVBL
SALMON         MOSUNNY   43  25  49 N5        30.21S
CHALLIS        SUNNY     40  21  46 E5        30.20S
$$

IDZ002-004-006-007-026-281800-
NORTHERN IDAHO


CITY           SKY/WX    TMP DP  RH WIND       PRES   REMARKS
LEWISTON       PTSUNNY   44  38  79 N6        30.30R
LOWELL           N/A     44  37  76 CALM      30.33S
COEUR D`ALENE  LGT RAIN  40  36  86 S6        30.25F
MULLAN PASS    LGT SNOW  28  27  96 SW7       30.16S VSB 1   WCI  21
$$




USA.gov is the U.S. government's official web portal to all federal, state and local government web resources and services.